Theta_e
323 323 323 325 326 327 326 324 327 322 320 321 320 320 317 315 315 313 313 312 311 307 304 305 305 306 307 306 305 304 304 305 307 315 318 308 304 305 303 301 299 298 297 297 296 297 297 297 301 302 304 305 304 304 306 303 301 302 302 303 304 306 309 309 308 309 309 308 308 307 306 305 306 304 303 305 306 305 305 307 309 309 310 310 311 309 310 312 311 311 312 312 314 315 315 314 315
323 322 322 325 326 327 323 321 329 324 322 323 320 319 315 313 313 312 313 312 311 308 306 306 306 305 305 305 304 304 303 302 303 305 306 304 303 302 300 299 297 296 296 296 296 297 297 297 300 300 300 301 301 302 303 303 299 299 301 302 301 302 307 305 304 307 308 309 308 307 306 303 304 306 304 304 306 305 304 307 307 307 309 309 310 310 310 310 309 309 310 311 312 313 313 313 314
322 321 323 326 325 324 321 322 328 324 323 323 320 317 313 312 312 311 310 310 309 308 308 307 306 305 305 305 304 305 304 301 302 303 302 302 301 298 298 298 296 296 295 296 296 297 298 298 298 298 298 299 299 299 300 301 299 299 299 301 301 299 303 302 301 303 304 306 306 304 305 303 301 304 306 305 305 304 304 307 307 307 307 308 308 309 309 309 309 307 308 308 308 311 312 312 312
321 322 325 325 324 322 321 323 325 322 323 323 320 315 312 311 310 309 308 309 309 308 308 307 306 304 304 305 303 303 303 300 301 302 301 300 298 297 297 297 296 296 295 296 297 297 298 298 298 298 298 298 298 298 299 300 300 300 299 299 300 298 299 300 300 301 300 300 301 301 303 303 300 302 304 304 304 303 303 305 307 307 307 307 307 308 308 308 309 308 308 307 305 306 309 310 311
322 323 325 325 323 319 320 321 320 321 320 319 319 314 311 311 309 309 308 308 308 307 308 307 306 302 301 301 302 302 301 299 299 299 300 299 298 298 297 296 296 295 296 296 297 297 298 298 298 298 298 297 298 298 299 301 301 302 301 299 300 299 298 299 299 300 299 298 299 299 301 303 302 302 303 301 302 302 303 304 305 307 307 307 306 307 307 307 308 308 308 308 306 304 304 307 308
323 324 323 323 320 315 318 319 317 316 314 315 317 313 311 311 309 308 307 307 307 307 307 307 306 304 302 300 299 301 301 299 298 298 298 298 297 297 296 296 295 295 296 297 297 297 298 298 298 298 297 297 298 299 300 303 303 303 302 299 300 300 298 299 299 300 299 299 298 297 298 299 299 301 301 301 301 300 301 304 305 306 306 306 305 305 306 306 306 306 306 307 307 305 303 303 305
324 324 321 322 317 313 316 316 316 314 311 312 313 311 311 311 309 308 307 308 307 307 307 306 305 305 304 302 300 298 298 299 298 298 298 297 297 296 296 295 295 295 296 297 297 297 297 297 297 297 297 297 297 299 299 300 302 302 302 299 299 300 298 298 298 298 298 298 298 296 296 296 295 296 297 298 299 298 298 300 304 305 305 305 305 305 305 305 305 305 305 304 306 306 303 302 301
324 322 318 318 316 315 315 313 313 313 310 309 310 309 309 309 309 308 307 308 306 305 306 306 305 305 304 301 300 298 297 298 298 298 297 297 296 296 295 295 296 296 296 297 297 297 297 297 297 297 296 296 296 297 297 297 299 300 300 299 298 298 298 296 296 296 296 297 297 296 295 295 295 294 294 294 295 295 295 296 299 302 304 304 305 304 305 304 304 305 305 304 304 306 305 303 301
322 322 318 317 316 315 315 313 313 311 309 308 307 308 308 308 308 307 306 306 305 304 304 305 306 305 302 299 299 297 296 297 297 297 296 296 295 295 295 295 296 296 296 296 297 297 297 297 297 297 296 296 296 296 296 296 297 298 298 298 298 298 297 296 295 295 295 295 296 295 295 295 294 294 294 294 294 294 294 294 295 300 302 303 304 304 304 304 303 303 304 304 303 304 305 304 303
320 320 318 317 316 315 314 314 313 310 308 307 306 306 307 307 307 306 306 305 305 305 304 305 305 304 302 300 299 297 295 295 295 295 295 295 295 295 296 296 296 296 296 296 297 297 297 297 297 297 296 296 296 296 296 296 296 296 296 296 296 296 296 295 294 294 294 294 294 294 294 294 294 294 294 294 294 294 294 294 294 297 300 301 302 302 303 303 303 302 302 303 303 303 304 303 303
320 316 316 318 318 316 314 313 311 309 307 307 306 306 306 307 307 306 305 305 305 305 305 305 304 302 302 301 300 297 295 295 295 295 295 295 295 296 296 296 296 296 296 296 296 297 297 297 296 296 296 296 296 295 295 295 295 295 294 294 294 294 294 294 294 294 294 293 294 294 294 294 294 294 294 294 294 294 294 294 294 295 296 297 297 298 298 299 300 300 301 302 303 303 303 303 303
321 315 316 320 318 315 313 311 310 309 307 307 306 306 306 307 307 305 305 305 305 305 305 305 304 303 302 301 300 296 295 295 295 295 295 296 296 296 296 296 296 296 296 296 296 296 296 297 296 296 296 296 296 295 295 295 295 294 294 293 293 293 293 293 293 293 293 294 293 294 294 294 294 294 294 294 294 294 294 294 294 294 295 295 294 295 294 294 296 298 300 301 301 301 302 302 301
319 315 319 319 315 313 313 312 311 310 309 307 305 305 307 307 305 304 305 305 305 305 305 304 304 303 303 301 300 297 295 295 295 296 296 296 296 296 296 296 296 296 296 296 296 296 296 296 296 296 296 296 296 295 295 295 295 294 294 293 293 293 293 294 293 294 293 293 293 294 294 294 294 294 294 294 294 294 294 295 295 294 294 295 294 294 294 293 294 295 296 297 297 297 298 299 297
316 315 320 317 314 315 314 314 313 313 311 306 305 306 306 305 304 305 306 305 304 305 305 304 305 305 303 301 300 297 295 295 295 296 296 296 296 296 296 296 296 296 296 296 296 296 296 296 296 296 296 296 295 295 295 295 295 294 294 293 293 293 293 294 294 294 294 293 293 293 293 294 294 294 294 294 294 294 294 294 294 294 295 295 295 295 295 294 294 293 293 293 294 294 294 294 294
316 314 318 318 317 317 315 315 313 314 311 306 306 306 305 304 305 306 306 306 304 304 304 304 305 307 304 300 298 296 295 295 295 296 296 296 296 296 296 296 296 296 296 296 296 296 296 296 296 296 296 296 295 295 295 295 294 294 293 293 293 293 293 294 294 294 294 294 294 294 294 294 294 294 294 294 294 294 294 294 294 294 294 294 295 295 295 295 294 294 293 293 293 293 293 293 293
316 314 318 320 317 317 315 312 312 315 311 306 306 306 305 304 304 305 304 304 302 301 302 301 302 303 301 298 296 295 295 295 296 296 296 296 296 296 296 296 296 296 296 296 296 296 295 296 296 296 296 295 295 295 295 295 294 294 293 294 293 294 294 294 294 294 294 294 294 294 294 294 294 294 294 294 294 294 294 294 294 294 294 294 294 295 295 295 294 294 294 293 293 293 293 293 293
315 316 318 319 317 316 316 314 314 315 310 305 306 306 304 302 302 302 301 301 299 298 298 297 297 297 296 295 295 295 295 296 296 296 296 297 297 296 296 296 296 296 296 296 296 296 295 296 296 296 296 295 295 295 295 294 294 294 294 294 294 294 294 294 294 294 294 294 294 294 294 293 293 293 294 294 294 294 294 294 294 294 294 294 294 295 294 294 294 294 293 293 293 293 293 294 293
316 319 317 317 318 315 316 315 313 312 308 305 305 304 304 302 302 301 300 299 297 296 295 295 295 295 295 295 295 296 296 297 297 297 297 297 297 297 297 296 296 296 296 296 296 295 295 295 296 296 295 295 295 295 295 294 294 294 294 294 294 294 294 294 294 294 294 294 294 294 294 294 294 294 293 293 294 293 293 293 294 294 294 294 294 295 294 294 293 293 293 293 292 293 293 293 293
313 317 316 314 314 310 310 311 308 309 308 304 304 304 303 302 302 301 300 299 297 297 296 295 295 295 296 296 297 297 297 297 297 297 297 297 297 297 297 296 296 296 296 296 295 295 295 295 295 295 295 295 295 295 294 294 294 294 294 294 294 294 294 294 294 294 294 294 294 294 294 294 294 294 294 293 293 293 293 293 293 294 294 294 294 294 294 294 293 292 292 292 292 292 292 292 293
309 314 316 310 307 306 306 308 307 307 306 303 302 303 302 302 302 301 299 298 298 297 297 296 296 296 296 297 297 297 297 297 297 297 297 297 296 296 296 296 296 296 296 295 295 295 295 295 295 295 295 295 295 295 295 294 294 294 294 294 294 294 294 294 294 294 294 294 294 294 294 294 294 294 294 294 293 293 293 293 293 293 294 294 294 294 293 293 293 292 292 292 291 292 292 292 292
307 309 312 306 305 306 305 307 307 305 305 303 302 302 301 301 301 300 299 300 299 297 297 296 296 296 297 297 297 297 297 297 297 297 297 297 297 296 296 296 296 296 296 295 295 295 295 295 295 295 295 295 295 295 295 295 294 294 294 294 294 294 294 294 294 294 294 294 294 294 294 294 294 294 293 293 293 293 293 293 293 293 293 293 293 293 292 292 292 292 292 291 291 291 291 291 291
305 304 305 304 305 304 302 304 305 304 304 303 302 302 301 300 301 300 300 301 299 297 296 296 296 297 297 297 297 297 297 297 297 297 297 297 297 297 296 296 296 296 296 295 295 295 295 295 295 295 295 295 295 294 294 294 294 294 294 294 294 294 294 294 293 294 294 294 294 294 294 294 294 294 293 293 293 293 293 293 293 293 293 293 292 292 291 291 291 291 291 291 291 291 291 291 291
305 303 301 302 304 302 302 303 303 304 304 303 302 301 299 299 298 298 298 298 297 297 297 297 297 297 297 297 297 297 297 297 297 297 297 297 297 297 296 296 296 296 296 295 295 295 295 295 295 295 295 295 295 294 294 294 294 294 294 294 294 294 294 294 293 293 293 293 293 294 294 294 293 293 293 293 293 293 292 292 292 292 291 291 291 290 290 289 289 289 289 290 290 290 290 290 290
305 303 300 301 303 301 302 303 303 304 304 302 301 299 298 298 298 297 297 297 297 297 297 297 298 298 298 297 297 297 298 297 297 297 297 297 297 297 297 296 296 296 296 296 295 295 295 295 295 295 295 295 295 295 294 294 294 294 294 294 294 294 293 293 293 293 293 293 293 294 294 293 293 293 293 292 292 292 291 291 291 290 290 289 289 288 288 288 288 288 288 288 289 289 289 289 289
302 302 300 300 301 301 302 303 303 304 302 300 300 298 297 297 298 297 297 297 297 297 298 298 298 298 298 297 297 298 298 298 298 297 297 297 297 297 297 297 297 296 296 296 296 296 296 296 295 295 295 295 295 295 295 294 294 294 294 294 294 294 293 293 293 293 293 293 293 294 293 293 293 293 292 292 291 291 290 290 289 288 288 287 287 287 287 287 287 287 288 288 288 288 288 288 288
302 300 300 299 299 300 302 302 301 301 300 300 299 297 297 298 298 298 297 298 298 298 298 298 298 298 298 298 298 298 298 298 298 298 297 297 297 297 297 297 297 296 296 296 296 296 296 296 295 295 295 295 295 295 295 295 295 294 294 294 294 293 293 293 293 293 293 293 293 294 293 293 293 292 291 291 290 289 289 288 287 287 287 286 286 286 286 286 287 287 287 287 287 287 287 287 287
301 299 300 300 300 301 301 302 301 301 300 300 299 298 298 299 299 300 298 298 298 298 298 298 298 298 298 298 298 298 298 298 298 297 297 297 297 297 297 297 297 296 296 296 296 296 296 296 295 295 295 295 295 295 295 295 295 294 294 294 294 293 293 293 293 293 293 293 293 293 293 293 292 291 290 290 289 288 287 287 286 286 286 286 286 286 286 286 286 286 286 286 286 286 287 287 287
301 301 302 300 301 301 301 301 301 301 300 300 299 298 298 298 299 300 298 298 298 298 298 298 298 299 298 299 299 298 298 298 298 298 297 297 297 297 297 297 297 297 296 296 296 296 296 295 295 295 295 295 295 295 295 295 295 294 294 294 294 293 293 293 293 293 293 293 293 293 292 292 291 290 289 288 287 287 286 286 286 286 286 286 286 286 286 286 286 286 286 286 286 286 287 287 287
302 302 302 300 302 302 300 301 301 300 300 299 299 300 301 301 300 299 298 298 298 298 299 298 299 299 299 299 299 299 298 298 298 298 298 297 297 297 297 297 297 297 296 296 296 296 296 295 295 295 295 295 295 295 295 295 295 294 294 294 293 293 293 293 293 293 293 293 293 292 292 291 290 288 287 286 286 286 286 286 286 286 286 286 286 286 285 286 286 286 286 286 286 286 287 287 287
302 301 301 304 307 304 300 300 300 301 300 299 299 303 308 305 299 298 298 298 298 299 299 299 299 299 299 299 299 299 299 299 298 298 298 298 298 297 297 297 297 297 296 296 296 296 296 295 295 295 295 295 295 295 295 295 295 294 294 294 293 293 294 293 293 293 293 293 292 291 290 289 288 287 286 286 286 286 286 286 286 286 286 286 286 285 285 286 286 286 286 286 286 286 287 287 287
301 300 302 306 308 304 300 299 300 301 300 299 300 304 309 305 300 299 298 298 298 299 299 299 300 299 299 299 299 299 299 299 299 298 298 298 298 297 297 297 297 297 297 297 296 296 296 295 295 295 295 295 295 295 295 295 294 294 294 294 294 294 294 293 293 293 292 291 291 290 288 287 286 286 286 286 286 286 286 286 286 286 286 285 285 285 285 285 286 286 286 286 286 286 287 287 287
301 303 306 306 305 304 302 299 298 300 300 298 300 305 308 304 300 299 298 299 298 298 299 299 299 299 299 299 299 299 299 299 299 298 298 298 297 297 297 297 297 297 297 297 297 296 296 296 295 295 295 296 296 295 295 295 294 294 294 294 294 294 293 293 292 292 291 290 289 288 287 286 286 286 286 286 286 286 286 286 286 286 285 285 285 285 285 286 286 286 286 285 286 286 287 287 287
305 305 308 306 305 304 303 299 297 299 299 299 300 303 306 302 299 299 298 299 298 298 299 299 299 299 299 299 299 299 299 299 299 298 298 298 298 297 297 297 297 297 297 297 297 296 296 296 296 296 296 296 296 295 295 295 295 294 294 294 294 293 292 292 291 290 289 288 287 286 286 286 286 286 286 286 286 286 286 286 285 285 285 285 285 285 285 285 285 286 286 285 286 286 286 287 287
307 306 305 302 302 303 304 302 298 297 299 300 300 301 305 302 299 299 299 298 298 298 299 299 299 299 299 299 299 299 299 299 299 298 298 298 297 297 297 297 297 297 297 297 297 297 296 296 296 296 296 296 295 295 295 295 295 295 294 294 293 292 292 291 290 289 288 287 286 286 286 286 286 286 286 286 286 286 285 285 285 285 285 285 285 285 285 285 285 285 286 286 285 285 286 286 286
309 309 308 303 302 302 303 303 299 298 300 303 303 302 305 304 299 299 299 298 298 298 299 299 299 299 299 299 299 299 299 299 299 299 298 298 298 297 297 297 297 297 297 297 297 297 296 296 296 296 296 296 295 295 295 295 295 295 294 294 293 292 291 290 289 288 287 286 286 286 286 286 287 286 286 286 286 286 285 285 285 285 285 285 285 285 285 285 285 285 285 285 285 285 285 285 285
310 309 309 306 305 303 302 303 299 297 301 304 304 303 304 305 302 300 300 299 298 299 299 299 299 299 299 299 299 299 299 299 299 299 298 298 298 298 298 297 297 297 297 297 297 297 296 296 296 296 296 296 295 296 296 296 295 295 295 294 294 292 291 289 288 287 286 286 286 286 286 286 287 287 286 286 286 286 286 285 285 285 285 285 285 285 285 285 285 285 285 285 285 285 285 285 285
305 306 307 305 305 304 302 303 299 296 301 303 302 302 303 305 302 299 300 300 299 299 299 299 300 299 300 299 299 299 299 299 299 299 299 298 298 298 297 297 297 297 297 297 297 297 296 296 296 296 296 295 296 296 296 295 295 295 294 294 293 292 290 288 287 286 286 286 286 286 287 287 287 286 286 286 286 286 286 285 285 285 285 285 285 285 284 284 284 284 284 284 284 285 284 284 284
304 306 307 305 304 304 302 302 299 296 300 303 301 302 304 306 303 298 299 299 299 300 299 299 300 299 300 300 300 300 299 299 299 299 299 298 298 298 297 297 297 297 297 297 297 297 296 296 296 296 296 296 296 296 295 295 295 294 294 293 293 291 289 288 287 287 287 287 287 287 287 286 286 286 286 286 286 286 285 285 285 285 285 284 284 284 284 284 284 283 284 284 284 284 284 284 284
307 306 307 306 303 303 303 302 302 298 300 305 304 302 303 304 301 297 299 300 300 301 300 300 300 300 300 300 300 300 299 299 299 299 299 298 298 298 298 297 297 297 297 297 297 296 296 296 296 296 295 295 295 295 295 295 295 294 294 293 292 291 289 287 287 287 287 287 287 286 286 286 286 286 286 286 285 285 285 285 284 284 284 284 284 284 283 283 283 283 283 283 283 283 283 283 283
306 306 307 306 302 302 304 303 305 302 299 302 303 302 303 304 301 298 298 300 300 301 300 300 300 300 300 300 300 300 299 299 299 299 299 298 298 298 297 297 297 297 297 297 297 296 296 296 296 295 295 295 295 295 295 295 295 294 294 293 292 290 288 287 287 287 287 287 287 286 286 286 286 285 285 285 284 284 284 284 284 283 283 283 283 283 283 282 282 282 282 282 282 282 282 282 282
305 305 306 306 303 302 304 303 304 303 299 299 301 305 308 308 307 305 300 298 299 300 300 301 300 300 300 300 300 300 299 299 299 299 299 298 298 298 298 297 297 297 297 297 297 296 296 296 295 295 295 295 295 295 295 295 295 295 294 294 292 290 288 287 287 287 287 287 286 286 286 285 285 285 284 284 284 283 283 283 283 283 282 282 282 282 282 282 281 281 281 281 281 281 281 281 281
306 302 302 302 302 303 306 306 305 307 305 299 299 307 316 311 309 310 303 300 302 300 299 301 301 300 300 300 300 300 299 299 299 299 299 299 299 298 298 297 297 297 297 297 296 296 296 296 295 295 295 295 295 295 295 295 295 295 294 293 291 289 288 287 287 287 287 286 286 286 285 285 284 284 283 283 283 282 282 282 282 282 282 282 282 282 281 281 281 281 281 281 281 281 281 281 281
307 300 299 301 302 304 308 307 305 308 307 299 298 306 312 309 309 309 304 304 305 300 299 301 301 301 300 300 300 300 299 299 299 299 299 298 298 298 298 297 297 297 297 297 296 296 296 296 296 295 295 295 295 295 294 295 295 294 294 292 290 288 287 287 287 287 286 286 285 285 285 284 283 283 283 282 282 282 282 282 282 282 282 282 282 282 282 282 281 281 281 281 281 281 280 280 280
304 300 300 303 303 305 306 307 307 306 304 301 301 302 303 307 309 305 301 304 305 303 301 301 301 301 300 300 300 299 300 299 299 299 299 298 298 298 298 297 297 297 297 297 296 296 296 296 296 295 295 295 295 294 294 294 294 294 293 291 289 287 286 286 286 286 286 285 285 284 284 283 283 282 282 282 282 282 282 282 282 282 282 282 282 282 282 281 281 281 281 281 281 281 280 280 280
301 298 299 301 301 304 305 307 310 306 304 307 305 300 302 311 312 305 301 303 305 307 305 302 301 301 300 300 300 299 299 299 299 299 298 298 298 298 298 297 297 297 297 297 296 296 296 296 296 295 295 295 294 294 294 294 294 294 293 290 288 286 286 286 286 286 285 285 284 284 284 283 282 282 282 282 282 281 282 282 282 282 282 282 282 282 281 281 281 281 281 281 281 280 280 280 279
299 295 298 300 300 303 303 305 308 306 307 313 306 299 303 312 313 308 303 303 307 309 305 300 300 301 300 300 300 299 299 299 299 299 298 298 298 298 298 297 298 297 297 297 296 296 296 296 295 295 295 295 294 294 293 294 294 293 292 289 287 286 286 286 286 286 285 285 284 284 283 283 282 282 282 282 282 281 282 282 282 282 282 282 281 281 281 281 281 281 281 280 280 280 280 280 279
297 298 301 302 303 303 303 306 307 308 314 314 304 300 302 308 314 312 305 304 308 308 304 299 299 301 300 300 300 299 299 299 299 299 298 298 298 298 298 298 298 297 297 297 297 296 296 295 295 295 295 295 294 294 293 293 294 293 291 288 286 286 286 286 286 286 285 284 284 283 283 282 282 282 282 282 282 281 282 282 282 282 281 281 281 281 281 281 281 281 280 280 280 280 280 280 279
298 303 305 304 307 304 306 312 308 309 318 310 302 301 300 306 315 312 306 306 303 302 303 301 300 300 300 300 300 299 299 299 299 299 299 299 298 298 298 298 298 297 297 297 297 296 296 296 295 295 295 295 294 294 293 293 294 293 290 287 286 286 286 286 285 285 284 284 283 283 282 282 282 282 282 282 282 282 282 282 281 281 281 281 281 281 281 281 281 280 280 280 280 280 280 279 279
303 308 308 309 316 310 312 320 310 310 314 303 299 301 300 305 311 308 307 307 300 297 300 301 300 300 300 299 300 299 299 299 299 299 299 299 299 298 298 298 298 297 297 297 297 296 296 296 295 295 295 295 294 294 293 293 294 292 289 286 286 286 285 285 285 284 284 283 282 282 282 282 282 282 282 282 282 282 282 281 281 281 281 281 281 281 281 281 280 280 280 280 280 279 279 279 278
306 307 307 311 316 311 315 318 308 308 310 300 296 300 304 308 307 306 307 303 298 297 299 300 300 300 300 300 300 300 300 300 299 299 299 299 299 298 298 298 298 297 297 297 297 297 296 296 296 295 295 295 294 294 292 293 293 291 288 286 285 285 285 285 285 284 283 282 282 281 281 281 281 281 281 281 282 282 281 281 281 281 281 281 281 281 280 280 280 280 280 280 279 279 278 278 277
304 301 303 309 310 306 311 314 308 308 309 303 298 301 311 312 303 302 301 298 297 298 299 299 300 300 300 300 300 300 300 300 300 300 299 299 299 298 298 298 298 297 297 297 297 297 296 296 296 295 295 295 294 293 292 293 293 291 287 285 285 285 285 285 284 284 283 282 281 281 281 281 281 281 281 281 281 281 281 281 281 281 281 281 281 280 280 280 280 280 280 279 279 278 278 277 276
301 298 304 309 306 306 306 304 302 302 305 308 304 302 309 305 299 298 296 297 298 298 299 299 300 300 300 300 301 300 300 300 300 300 299 299 298 298 298 298 298 298 297 297 297 297 296 296 296 295 295 294 294 293 292 292 292 289 286 285 285 285 285 285 284 283 283 282 281 281 281 281 281 281 281 281 281 281 281 281 281 281 281 281 281 280 280 280 280 280 280 279 278 278 277 276 275
301 302 306 301 297 305 307 299 297 298 304 311 306 303 307 303 300 301 298 299 300 298 299 300 300 301 300 301 301 300 300 300 300 299 299 299 299 299 299 298 298 298 298 297 297 297 297 296 295 295 295 294 294 293 292 292 291 288 286 285 285 285 285 284 284 283 282 281 281 280 281 281 281 281 281 281 281 281 281 281 281 281 281 281 280 280 280 280 280 280 279 279 278 277 276 276 275
304 307 302 296 295 303 306 303 305 306 309 312 306 304 308 305 304 306 303 303 303 300 298 299 300 301 300 301 301 300 300 300 300 299 299 299 299 299 299 298 298 298 298 297 297 297 296 296 295 295 294 294 294 293 292 292 290 287 285 285 285 285 284 284 283 283 282 281 281 280 281 281 281 281 281 281 281 281 281 281 281 281 281 280 280 280 280 280 280 279 279 278 278 277 276 275 275
299 301 297 299 303 305 306 306 308 307 307 311 309 305 304 304 307 309 305 304 306 303 299 298 300 301 301 301 301 300 300 300 300 299 299 299 299 299 298 298 298 298 298 298 297 297 296 296 295 295 294 294 293 292 292 292 289 286 285 285 285 285 284 284 283 283 282 281 280 280 281 281 281 281 281 281 281 281 281 281 281 281 281 280 280 280 280 280 280 279 279 278 277 276 275 275 275
297 300 299 301 305 304 304 303 303 306 307 308 311 311 310 308 309 309 306 306 308 307 302 299 300 301 301 301 301 300 300 300 300 300 299 300 299 298 298 299 298 298 298 297 297 297 296 296 295 295 294 294 293 292 292 291 288 286 285 285 285 284 284 283 283 282 281 281 280 280 281 281 281 281 281 281 281 281 281 281 281 281 280 280 280 280 280 280 279 279 278 278 277 276 276 275 276
302 306 304 303 302 299 301 300 298 303 308 307 307 312 317 312 305 307 309 308 304 303 302 300 300 301 300 300 300 300 300 300 300 300 300 300 299 298 298 299 298 298 297 297 297 297 296 295 295 294 294 294 293 292 292 291 288 285 285 285 284 284 284 283 283 282 281 281 280 280 281 281 281 281 281 281 281 281 281 281 280 280 280 280 280 280 280 280 279 279 278 278 277 276 276 276 276
300 303 303 306 305 303 307 307 300 299 303 306 305 308 315 308 300 302 305 300 297 297 299 300 301 301 300 300 300 300 300 300 300 300 300 299 299 298 299 299 298 298 297 297 297 297 296 295 295 295 294 294 292 292 292 291 287 285 285 285 284 284 284 283 283 282 281 281 280 280 281 281 281 281 281 281 281 281 281 281 280 280 280 280 280 280 280 280 279 279 278 277 276 276 276 276 276
Wind_Speed
9 7 7 7 5 5 4 6 8 7 3 6 3 1 3 3 3 2 1 1 0 2 7 10 13 14 10 8 10 10 8 4 1 1 2 3 4 6 9 13 14 14 15 17 18 20 21 21 21 22 22 23 23 23 24 25 24 23 24 24 24 24 24 23 23 23 22 22 22 22 21 20 21 21 20 19 20 18 18 19 20 20 21 21 21 20 18 17 17 16 14 14 13 13 14 14 12
10 7 6 6 4 4 7 10 5 2 4 5 3 2 2 3 2 2 2 1 2 5 7 10 13 14 11 10 9 8 10 9 6 6 7 7 7 9 11 12 11 13 15 17 18 20 21 20 21 21 20 21 22 22 22 24 23 22 23 23 23 23 23 22 22 22 21 21 21 22 21 19 20 21 20 20 20 20 19 20 20 20 20 20 20 19 18 18 17 17 16 15 13 13 15 15 15
9 6 5 6 6 9 8 8 5 2 5 5 3 2 2 2 1 2 2 4 7 6 5 5 9 11 8 6 6 5 4 7 9 8 8 8 8 9 10 10 10 13 15 17 18 19 19 18 19 20 19 19 20 21 21 22 23 22 21 22 22 21 21 22 21 20 20 19 19 20 21 19 18 19 21 20 20 19 19 20 21 21 20 20 20 19 19 19 18 17 17 17 15 14 14 14 16
8 7 8 8 9 11 7 5 3 3 5 4 2 2 2 2 3 4 4 7 6 2 4 3 5 8 9 6 4 6 5 5 7 7 6 7 7 8 9 9 11 14 15 16 16 17 17 17 19 20 19 19 20 20 21 22 23 23 22 21 21 21 20 20 20 20 19 18 19 19 20 20 18 18 20 20 19 19 19 19 20 21 20 20 20 20 19 18 19 18 17 17 16 14 14 13 13
7 7 6 4 7 7 5 4 2 4 3 1 1 2 3 3 5 5 6 6 2 2 3 1 3 4 9 9 4 3 4 6 7 7 6 6 7 7 8 9 11 13 13 15 14 15 16 18 19 20 20 20 21 22 22 22 22 23 23 22 21 21 19 18 19 20 20 20 19 19 19 20 19 19 19 19 19 18 18 19 20 20 20 20 19 19 19 19 18 18 17 17 16 15 14 12 11
8 9 9 11 13 7 5 5 4 5 3 2 2 3 4 5 7 9 10 9 7 4 2 4 4 4 8 9 8 5 3 5 5 6 6 6 6 7 8 9 11 12 13 14 14 14 16 18 19 20 21 22 23 23 22 21 21 22 23 22 21 21 20 18 18 19 20 20 20 18 18 17 17 18 19 19 18 18 16 18 20 19 20 20 19 19 19 19 18 16 16 16 16 16 14 12 11
11 9 12 15 15 9 5 6 4 4 5 5 4 4 4 5 8 9 7 6 8 7 7 7 5 5 4 4 6 5 4 5 5 6 6 6 7 7 8 9 9 10 12 13 13 14 16 18 19 21 23 24 24 24 24 23 22 22 23 22 21 20 20 18 18 18 18 19 20 19 18 17 16 15 16 17 18 18 16 17 19 19 20 19 19 19 19 19 18 16 16 15 14 17 15 13 11
10 9 13 12 7 6 5 6 4 2 4 7 7 7 6 5 6 5 4 3 4 6 6 4 4 4 2 3 3 4 6 6 6 6 5 5 6 7 7 8 8 9 10 12 13 14 16 18 20 22 23 24 25 25 26 25 23 21 21 21 20 19 20 18 16 17 17 18 19 18 18 18 18 17 16 16 16 17 16 16 17 20 20 19 19 19 19 18 17 16 16 16 12 14 16 14 13
11 13 14 11 4 5 5 4 4 3 3 6 8 10 10 9 7 6 7 6 4 9 11 4 2 3 3 5 5 4 4 4 5 5 4 4 5 6 6 6 7 8 9 11 13 15 16 18 20 21 22 24 25 25 26 27 25 23 21 21 19 18 19 18 16 15 15 16 17 17 18 18 18 18 18 18 17 17 16 16 16 19 20 19 19 19 19 17 17 15 14 15 14 13 15 16 16
13 14 10 7 4 6 5 3 3 3 4 6 8 10 9 9 10 10 8 7 4 6 11 9 7 7 5 4 4 3 3 2 4 4 3 4 5 5 5 5 6 7 9 12 13 14 16 18 19 21 22 23 24 26 27 27 27 25 22 21 19 17 18 18 16 15 15 15 16 16 17 17 17 17 18 18 18 18 17 17 16 18 19 18 18 18 18 17 17 15 13 14 15 14 15 16 17
11 10 10 7 4 5 4 4 3 3 4 5 7 10 8 7 10 10 7 7 7 7 8 8 8 8 5 3 3 3 2 2 3 4 4 4 4 5 5 6 8 9 10 12 14 15 16 18 19 20 22 23 24 26 27 28 28 26 23 21 19 17 17 18 17 16 15 16 16 16 16 16 16 17 17 18 18 18 18 17 17 17 18 18 17 17 17 17 17 16 14 14 14 14 15 14 13
7 4 7 6 3 4 4 5 4 4 3 3 5 8 7 8 8 6 6 7 7 9 10 8 4 3 3 3 3 2 3 3 3 4 4 3 4 5 6 8 9 9 10 12 14 15 17 18 19 20 21 23 25 26 27 28 29 26 23 21 19 17 18 18 17 16 16 16 16 16 16 15 15 16 16 17 17 17 17 17 17 17 18 18 18 18 18 18 17 16 16 15 15 13 13 13 13
10 3 7 5 2 4 5 5 4 4 3 2 3 5 5 8 7 3 6 9 8 7 9 8 4 2 2 2 2 2 3 3 4 4 3 3 5 6 7 9 9 9 11 12 13 15 16 18 19 20 21 23 24 26 27 28 28 26 23 21 19 18 19 19 18 18 17 17 17 17 17 17 16 16 16 16 17 17 17 17 17 18 19 19 19 19 19 18 18 18 18 18 17 16 15 15 17
13 6 7 4 2 3 4 4 3 4 2 0 1 3 6 7 7 5 6 8 9 6 5 6 4 3 3 1 2 2 3 3 3 3 3 5 6 7 8 9 10 10 11 12 13 14 16 18 19 19 21 22 24 26 27 28 28 25 23 21 19 18 19 20 19 19 19 19 19 19 20 20 20 19 19 19 19 19 19 19 18 19 19 20 20 20 20 19 19 19 19 20 20 21 21 21 20
18 13 8 3 4 3 2 2 3 5 1 0 3 5 9 7 6 8 8 7 6 5 3 4 3 2 2 1 2 3 3 3 2 3 4 7 7 7 8 10 11 12 12 13 13 14 16 18 19 20 21 22 24 26 26 27 27 24 21 20 18 17 18 19 19 19 19 20 20 20 21 22 22 22 22 22 22 21 22 22 22 21 21 20 20 21 21 20 20 20 20 20 20 22 23 22 20
19 15 6 3 5 3 2 2 3 4 1 5 8 7 9 9 9 10 10 9 8 8 6 6 6 5 5 4 4 4 3 2 3 5 6 8 8 8 8 10 12 13 13 13 14 15 17 19 19 20 21 23 24 25 25 26 25 22 20 19 18 17 17 18 19 20 20 20 21 21 21 22 22 23 23 23 23 23 23 24 25 25 24 23 22 21 21 21 21 21 20 20 21 21 21 22 22
17 13 6 4 4 4 4 2 3 4 4 6 4 2 6 7 11 14 11 11 12 12 11 10 10 9 7 6 6 5 4 4 5 6 7 8 9 9 8 9 11 14 14 14 15 16 17 19 19 19 21 23 24 24 24 25 23 20 19 18 18 17 18 19 20 21 22 22 23 23 23 23 23 23 23 24 24 24 24 25 26 27 27 26 26 24 23 22 21 21 21 20 21 21 21 20 21
10 6 5 4 3 3 3 5 6 7 5 4 4 6 9 6 6 9 8 10 13 12 13 12 10 10 8 8 8 7 7 7 7 7 8 9 10 11 11 10 11 14 14 15 15 16 17 18 19 19 21 23 23 23 23 23 20 18 18 18 18 19 20 21 22 22 23 23 24 25 25 24 24 25 25 25 25 25 25 25 26 27 27 27 27 26 25 24 22 21 21 21 21 22 22 21 21
11 3 5 4 2 2 3 9 8 7 9 9 9 8 7 5 4 5 3 6 10 11 10 9 9 9 9 9 9 9 9 9 9 9 9 10 11 11 12 11 11 14 14 15 15 16 17 17 18 20 21 22 22 23 22 20 19 18 18 18 19 20 21 22 22 23 24 24 25 25 25 25 25 26 26 26 26 26 26 27 28 28 28 28 28 27 26 25 23 22 22 22 22 22 23 23 22
11 6 6 1 3 6 7 12 12 12 18 15 10 7 6 6 4 5 6 7 9 7 6 7 8 8 8 9 9 9 9 9 9 9 9 9 10 10 11 11 11 13 14 14 15 15 16 17 19 20 20 21 21 22 20 19 18 18 18 19 20 21 22 23 24 24 25 25 24 24 25 25 25 25 25 25 26 26 27 28 29 30 29 29 29 28 27 25 24 23 23 23 24 24 24 24 24
9 6 5 2 7 8 7 15 17 17 19 15 12 10 8 6 5 6 6 6 6 4 5 6 7 7 8 8 8 9 8 9 8 9 10 10 11 10 11 12 12 13 13 13 14 15 16 17 19 18 19 20 21 21 21 20 20 20 20 21 22 23 24 25 25 26 26 26 25 24 25 25 26 26 26 26 26 27 28 29 29 30 31 31 31 30 29 28 27 26 25 25 25 26 26 26 26
11 8 9 8 10 8 7 17 18 16 16 15 13 8 6 6 6 5 4 4 2 3 6 6 6 6 7 7 7 7 7 8 9 10 12 12 12 12 11 12 12 13 13 13 14 15 16 17 17 16 18 19 21 23 23 22 21 21 22 22 23 24 25 26 26 26 27 26 25 25 26 26 27 27 27 27 28 28 29 30 30 31 31 31 32 32 32 31 31 30 29 29 28 28 27 27 27
10 8 12 14 14 12 11 16 15 14 16 12 9 8 8 8 8 7 7 8 5 5 6 5 5 5 5 6 5 6 6 8 10 11 13 13 13 13 12 13 13 14 14 14 15 15 16 16 15 16 17 19 22 24 25 23 21 21 22 23 24 24 25 26 27 27 27 27 26 26 28 29 29 29 30 29 29 30 31 31 31 32 32 32 32 33 33 33 33 33 32 32 31 30 29 28 28
14 7 11 15 16 15 12 14 13 12 14 11 10 10 8 7 6 6 7 8 6 5 4 4 4 3 4 4 4 5 7 9 10 11 12 12 13 13 13 14 15 15 14 14 14 14 14 15 15 16 18 20 22 24 26 25 23 22 22 22 23 24 25 26 27 28 27 27 27 28 29 30 31 32 32 32 32 32 32 32 33 33 34 34 34 34 35 35 34 34 33 32 31 30 29 28 28
12 7 9 13 15 15 13 14 13 12 14 12 11 10 7 7 6 4 5 5 4 3 3 3 3 2 2 2 3 5 7 9 10 10 10 11 12 13 14 14 16 16 15 15 14 13 14 15 16 17 18 20 22 24 27 27 24 22 22 22 24 24 25 26 27 27 27 27 27 29 30 32 33 33 34 34 34 34 34 34 35 35 36 36 36 36 36 35 34 33 32 31 29 28 27 26 26
6 10 14 15 15 15 14 14 14 14 12 9 8 8 6 7 5 3 3 2 1 1 1 1 1 1 1 3 4 5 6 8 10 9 9 10 10 12 14 14 16 17 17 16 15 15 15 16 17 18 19 21 22 24 27 28 25 22 22 22 23 24 24 26 26 27 27 28 29 30 31 33 34 34 34 35 35 35 35 36 36 36 36 36 36 36 35 34 34 32 30 29 28 27 26 25 25
16 22 22 19 15 13 13 14 12 9 7 6 6 3 2 3 1 1 3 1 1 1 2 2 2 2 3 4 5 5 4 6 9 9 9 10 10 12 13 14 16 17 17 16 16 16 15 16 17 18 19 20 22 24 27 28 26 23 22 22 22 23 24 25 26 26 27 29 30 31 33 33 34 34 35 35 36 36 37 37 36 36 36 35 35 35 34 33 32 30 29 28 27 26 25 24 24
25 25 21 16 15 13 10 10 7 5 5 6 4 1 1 1 0 2 3 1 3 3 4 4 4 4 4 5 6 5 4 5 9 10 11 11 11 12 13 15 16 17 17 16 16 15 15 16 18 18 19 20 22 25 27 28 25 22 21 21 22 23 24 25 26 27 29 30 32 33 34 35 35 35 35 36 36 37 37 36 36 35 35 34 34 33 32 31 30 29 28 27 26 25 24 23 23
22 17 12 8 10 9 7 5 5 4 2 1 4 3 3 3 2 3 2 2 4 5 5 6 6 6 6 6 5 4 5 6 9 11 12 12 12 12 13 15 16 17 17 16 16 15 15 17 18 19 19 21 23 25 28 27 24 21 21 21 21 22 24 26 27 29 30 32 33 34 34 35 35 36 36 37 37 36 36 35 35 34 33 33 32 31 30 30 29 28 27 27 26 25 24 23 22
14 9 7 3 5 5 6 6 5 3 1 4 3 3 5 5 3 4 3 4 5 6 6 6 6 6 6 6 6 5 6 8 10 11 11 11 11 11 12 13 14 16 17 16 16 15 16 17 18 19 20 22 24 26 27 25 22 21 21 21 22 24 26 27 29 30 32 33 34 34 35 36 36 37 37 37 36 36 35 34 34 33 32 31 30 29 29 28 28 28 28 28 26 26 25 24 23
5 3 4 3 3 2 5 7 6 2 1 3 2 1 4 7 3 4 4 5 5 7 6 7 7 6 7 6 7 7 7 8 10 10 10 11 11 11 11 12 13 15 17 17 16 15 15 16 17 19 20 22 24 25 24 23 22 21 21 22 24 26 27 29 30 31 32 33 34 35 36 36 36 37 36 36 35 35 34 33 33 32 31 30 29 28 28 29 28 28 28 29 28 27 26 25 25
3 2 3 4 3 2 6 6 6 2 1 4 4 1 5 5 3 3 5 6 6 8 8 8 8 7 8 8 8 9 9 9 10 9 9 10 10 11 11 12 12 14 17 18 18 16 16 16 17 19 21 23 24 23 23 22 22 22 23 24 25 27 28 30 31 32 33 34 35 36 36 36 36 36 36 35 34 34 33 32 31 30 29 28 28 28 28 28 28 28 27 29 29 28 27 27 26
4 4 2 3 3 2 4 3 8 6 1 4 5 1 4 3 3 1 5 7 8 10 10 10 10 10 9 10 10 11 11 11 10 9 9 10 10 11 12 13 13 14 17 19 19 17 16 16 18 20 21 22 22 22 22 22 23 23 23 24 26 27 29 30 32 33 34 35 35 36 36 36 36 35 34 33 32 32 31 30 30 29 28 28 28 27 28 28 28 28 26 27 28 29 29 28 27
4 4 3 1 1 2 3 2 8 10 3 3 4 1 5 6 6 3 5 7 9 11 12 11 11 12 12 12 12 13 13 13 11 10 10 11 11 12 14 14 13 14 17 19 19 17 16 16 18 20 21 21 22 22 23 23 23 23 24 25 26 28 30 31 32 33 34 35 35 35 35 34 34 33 33 32 31 31 30 29 29 29 28 28 27 27 27 27 27 27 26 26 27 28 29 29 29
3 3 3 1 1 0 2 2 6 10 5 4 5 2 6 9 9 6 5 8 10 12 12 12 12 13 14 14 14 14 14 15 13 11 12 12 12 13 15 15 14 15 17 19 19 18 16 17 18 19 20 21 21 23 23 24 24 24 24 25 27 29 30 31 32 33 33 34 34 33 33 33 32 32 32 31 31 30 30 29 29 29 28 28 28 28 27 27 27 27 26 26 26 26 27 28 28
7 5 4 4 2 1 3 4 4 5 3 4 4 3 7 9 10 8 6 8 11 13 14 14 14 15 15 16 16 16 16 16 14 12 13 13 13 15 16 16 16 16 17 19 19 18 17 18 19 20 21 21 22 23 24 25 25 26 27 28 30 31 32 32 33 33 33 33 33 32 32 32 32 31 31 31 31 31 30 30 29 29 28 28 28 28 28 28 28 27 27 26 26 25 25 26 27
8 6 5 4 2 1 3 4 4 4 1 2 2 3 7 8 10 10 7 8 11 14 15 16 16 16 17 17 18 18 17 17 15 14 14 13 14 15 16 17 16 16 17 18 19 19 18 19 20 21 22 23 24 25 26 27 28 29 31 32 33 34 34 34 34 34 34 33 32 31 31 31 31 31 31 31 31 30 30 29 28 28 27 27 28 28 28 27 27 27 26 25 25 25 25 26 27
7 6 5 4 1 1 3 3 5 5 1 3 2 4 9 8 9 11 8 8 12 13 14 15 16 16 17 18 19 19 18 17 16 15 13 13 14 15 15 16 15 16 17 19 19 19 19 19 20 21 22 23 24 26 27 28 29 30 31 33 34 35 35 35 35 34 33 32 31 30 30 30 30 30 30 30 29 28 27 27 26 26 26 26 26 27 27 27 27 27 26 26 26 26 25 25 26
6 4 4 2 1 3 4 3 4 5 1 3 4 5 9 9 8 12 11 10 12 13 13 14 15 16 17 17 17 18 18 17 15 14 12 11 12 14 14 15 15 16 17 18 18 18 18 19 20 21 22 23 24 25 27 28 29 30 30 32 34 34 34 34 33 32 31 30 29 29 29 29 29 28 28 27 27 26 26 25 25 25 25 26 26 26 26 26 26 26 27 27 27 27 25 24 24
4 4 3 0 1 1 2 2 5 5 1 1 4 4 7 6 5 9 9 9 12 13 14 15 15 17 17 17 17 17 17 16 14 13 11 9 11 13 13 14 15 15 16 17 18 18 18 19 20 21 22 23 24 26 27 28 29 29 30 31 32 32 32 32 30 29 28 28 28 27 27 27 26 26 26 25 25 25 25 25 25 25 25 26 26 26 26 26 26 26 27 27 27 28 27 25 24
3 2 3 0 1 1 3 3 4 4 2 2 4 5 4 4 4 5 4 3 8 10 12 13 12 13 14 13 13 13 14 13 13 12 10 10 11 12 12 14 14 15 16 17 17 18 19 19 20 22 23 24 25 26 27 28 29 30 31 31 31 32 32 32 30 29 28 28 27 26 26 25 24 24 24 24 24 25 25 25 25 25 25 25 26 26 26 26 26 26 26 26 27 27 28 28 25
3 1 2 2 2 1 3 5 4 4 4 3 5 5 4 5 4 6 4 4 6 7 9 11 10 10 10 10 10 9 10 10 10 10 10 11 12 13 14 14 14 14 16 17 17 17 18 19 20 22 23 24 25 26 27 29 31 32 33 34 35 35 34 33 32 31 30 28 27 25 24 24 24 24 24 24 24 24 24 25 24 24 24 25 25 25 25 25 25 25 25 25 25 26 27 27 26
2 1 2 4 3 1 2 3 3 1 3 3 4 3 3 6 5 6 4 5 7 8 9 10 9 8 8 7 7 8 7 7 8 9 10 12 13 14 14 13 13 14 16 16 16 17 18 19 20 21 23 24 25 26 27 29 31 32 34 35 36 36 34 32 31 29 28 27 25 24 24 24 23 23 24 24 25 25 25 24 24 24 24 24 24 24 24 24 24 24 24 24 24 25 25 26 26
0 1 3 3 2 1 0 3 3 1 2 3 4 4 1 5 5 5 4 4 7 7 9 10 9 7 6 6 6 7 7 8 8 10 11 13 13 13 13 12 13 14 15 16 16 17 17 18 19 21 22 24 25 26 27 29 31 32 33 34 34 34 32 31 29 27 26 25 24 23 23 23 23 24 24 25 25 25 25 24 24 24 24 24 24 24 24 24 23 23 23 22 22 23 24 24 25
2 2 3 1 1 2 2 3 2 1 2 3 4 3 1 4 6 5 3 3 6 7 7 9 8 7 6 6 6 6 7 8 9 11 12 12 13 13 12 11 13 14 14 15 16 16 17 18 19 20 22 24 25 26 27 28 30 32 33 33 33 32 30 29 27 26 25 24 23 23 22 22 23 24 24 25 25 25 25 25 24 24 24 24 23 23 23 23 23 23 22 22 22 22 22 22 23
1 2 2 1 3 2 3 3 2 2 3 3 4 2 1 4 6 4 2 1 5 6 7 7 6 6 6 6 6 6 7 8 10 11 12 11 11 11 11 12 13 14 14 15 15 16 16 17 19 20 22 24 26 26 27 28 30 32 32 33 32 31 29 28 26 25 24 24 23 23 23 23 23 24 24 25 26 25 25 25 25 25 24 23 23 23 23 23 23 22 22 22 22 22 21 21 21
2 2 1 2 3 3 3 2 3 4 3 5 5 1 2 2 5 4 2 3 5 4 3 5 5 5 5 5 5 6 7 9 9 10 10 9 9 10 12 13 14 14 14 14 15 16 16 18 19 20 23 25 26 27 27 28 30 32 32 32 32 31 29 28 27 26 25 25 24 24 24 24 24 25 25 25 25 25 25 25 25 24 24 23 23 23 23 23 23 22 22 21 21 21 21 20 20
3 2 2 2 4 3 3 4 4 3 3 5 4 2 2 1 5 5 4 5 5 6 4 5 6 4 4 4 5 7 8 9 9 9 10 10 10 12 13 14 14 14 14 14 15 16 16 18 19 21 23 25 27 27 27 28 30 32 32 32 31 30 29 28 27 26 26 26 25 25 25 25 25 25 25 25 25 25 24 24 24 24 23 23 23 23 23 22 22 21 21 20 20 20 20 20 19
3 3 4 3 4 4 2 4 2 1 4 2 1 1 0 5 7 6 6 7 7 9 7 6 5 5 5 6 7 8 8 9 10 10 11 11 12 13 14 14 14 14 14 14 15 16 17 18 20 21 23 25 27 27 26 28 30 31 32 31 30 29 27 27 26 26 26 26 26 26 26 26 25 25 25 25 24 24 24 23 23 23 23 23 23 22 22 21 20 20 20 20 21 20 20 19 18
3 2 3 2 2 4 3 4 2 3 4 2 2 2 2 5 5 6 7 6 6 9 9 6 6 6 7 8 9 10 9 9 10 11 11 12 13 14 14 14 14 14 14 14 15 16 18 19 20 21 23 25 27 27 26 27 30 31 31 30 28 27 26 25 25 25 25 25 26 26 26 26 26 25 24 24 24 23 23 23 23 23 23 23 22 21 20 20 19 19 20 21 21 20 20 19 18
1 3 4 3 3 2 3 3 1 4 5 4 3 1 2 2 2 4 6 6 5 6 7 7 7 7 9 11 11 11 10 9 10 11 11 12 13 14 14 14 14 14 14 14 15 16 18 19 20 21 23 25 27 27 25 27 29 30 30 29 27 26 25 25 24 24 24 25 25 25 25 25 24 24 24 23 23 23 23 23 23 22 22 21 21 20 19 19 19 20 21 21 20 19 19 18 17
1 2 3 2 2 3 1 2 4 1 3 4 2 2 4 3 3 4 4 6 4 5 6 7 7 8 10 12 12 11 10 9 9 11 11 12 13 14 14 14 14 14 14 14 15 17 18 19 20 21 22 25 27 26 25 27 29 30 29 28 26 25 24 24 23 24 24 24 25 25 24 24 23 23 23 22 22 23 23 23 22 22 21 20 20 19 19 19 20 21 21 20 19 18 18 18 17
1 2 2 1 3 6 4 0 0 4 2 4 2 3 5 3 2 4 5 4 4 4 6 8 8 9 10 12 12 11 11 10 10 10 11 12 13 13 14 14 15 15 14 14 16 17 18 19 19 21 22 24 26 25 25 27 28 29 28 27 25 24 24 23 23 23 23 24 24 24 24 23 22 22 22 22 22 23 23 23 22 21 20 20 20 20 20 21 22 22 21 20 19 18 17 17 17
2 2 3 2 3 5 4 1 4 5 1 4 2 3 6 3 1 4 5 4 6 6 7 9 9 9 10 11 11 12 12 11 10 10 11 12 12 13 13 14 15 15 14 15 16 17 18 19 19 20 22 24 26 25 25 27 28 28 27 26 25 24 23 23 23 23 23 24 24 23 23 22 21 21 21 21 22 23 23 22 21 21 20 20 20 20 21 22 22 21 21 20 19 18 17 17 17
3 4 4 2 2 1 2 2 1 3 2 5 5 4 3 2 3 2 2 2 5 6 6 7 9 9 9 10 12 13 12 11 11 10 11 11 12 12 14 15 16 15 15 16 16 17 17 18 20 20 22 24 25 24 25 27 28 28 27 26 24 23 22 22 22 23 23 24 24 23 22 21 21 21 21 21 22 22 22 21 20 20 20 20 20 21 22 22 22 21 21 21 19 18 17 18 18
3 3 2 2 3 2 1 2 2 1 2 4 5 5 3 5 5 4 4 5 5 4 4 6 9 10 9 11 14 15 14 11 11 11 10 10 11 12 14 16 16 15 15 16 16 17 17 18 20 21 22 24 24 23 25 26 27 27 26 25 23 22 22 22 22 23 23 24 24 23 21 20 20 20 20 21 22 22 21 20 20 20 20 20 21 22 22 22 22 21 21 20 19 20 21 20 20
1 3 3 2 2 2 1 1 2 2 1 1 2 5 6 6 4 5 6 6 6 7 5 7 10 11 11 13 15 18 16 11 10 11 10 10 11 12 14 16 16 15 15 15 16 17 17 19 20 21 23 24 23 23 25 26 27 26 25 24 23 22 21 21 22 22 23 23 23 22 21 20 20 19 19 20 21 21 20 19 19 19 20 21 22 22 23 23 23 22 21 19 18 21 23 22 21
3 1 1 2 2 3 2 3 3 2 2 3 2 4 8 6 2 5 5 4 4 5 5 8 12 13 14 15 17 18 15 11 10 11 10 10 11 12 14 15 15 14 14 14 15 16 17 19 20 21 22 23 22 23 25 26 26 26 24 23 22 21 21 20 21 21 22 23 23 22 20 19 19 19 19 20 20 20 19 19 19 19 21 21 22 23 23 24 24 23 22 21 21 22 23 22 22
Wind_Direction
137 145 149 139 140 139 50 52 60 28 72 77 50 64 44 43 76 64 360 347 27 54 64 60 39 48 73 86 96 84 61 56 45 45 96 107 79 65 64 66 62 59 50 41 35 30 27 20 25 28 22 20 15 13 12 13 12 10 10 10 11 13 16 15 16 17 15 15 16 16 18 20 19 17 17 17 18 18 20 21 22 22 22 21 17 16 19 17 11 5 359 3 4 359 355 346 334
143 154 148 138 122 117 50 52 84 8 62 75 35 43 37 36 61 40 335 294 136 123 82 57 50 52 64 83 83 68 57 53 67 73 88 103 81 73 70 65 58 54 46 38 32 29 28 19 26 32 26 22 18 16 12 12 11 9 8 7 7 8 13 12 13 17 17 18 17 18 17 17 19 19 18 17 18 18 21 21 20 22 20 20 21 18 14 12 13 11 6 360 358 1 359 346 338
147 149 118 126 98 86 65 47 79 62 70 82 49 47 44 40 57 39 38 132 128 110 60 34 50 47 49 68 46 48 62 49 67 81 86 90 78 73 66 60 53 48 40 35 32 31 30 22 30 34 27 24 19 17 15 13 11 9 8 7 5 4 9 8 9 12 14 16 14 16 17 16 16 18 20 19 18 16 20 20 19 20 18 19 20 18 15 14 11 7 7 3 359 0 356 341 333
144 132 112 120 83 63 57 46 70 84 83 93 82 52 51 88 102 78 99 128 131 64 356 360 51 49 54 63 50 58 73 61 71 84 86 82 73 69 67 64 54 45 37 34 32 35 34 25 31 33 26 24 21 17 16 13 11 9 8 8 6 4 7 7 8 9 9 12 10 13 16 15 13 15 19 18 17 16 17 19 19 18 15 17 18 17 15 16 16 10 8 3 360 359 356 349 335
148 135 124 130 78 55 70 76 51 70 87 116 108 78 85 113 104 105 113 118 147 288 305 81 92 63 58 51 49 66 73 71 76 88 93 89 81 77 75 68 54 43 36 33 33 36 33 27 29 29 23 23 22 18 16 12 11 10 8 10 8 6 8 7 7 8 9 10 10 13 16 15 16 17 16 15 15 16 17 18 18 16 14 14 15 16 15 15 17 12 10 6 2 0 352 344 328
131 118 95 90 84 75 80 77 64 69 47 339 94 98 98 115 118 121 115 96 87 91 80 103 122 98 71 48 50 68 79 78 84 92 97 96 86 84 79 66 52 41 37 33 34 33 30 28 26 24 21 21 21 17 15 11 9 10 8 8 9 8 9 10 8 10 11 12 10 10 13 13 14 15 15 15 14 15 16 17 16 13 12 12 11 13 13 12 15 9 6 7 4 1 352 339 317
124 103 75 81 72 57 73 78 72 63 27 18 62 78 73 113 129 125 117 93 70 69 70 77 95 95 70 32 48 65 81 94 100 96 93 92 87 86 77 62 49 41 39 35 34 32 29 26 23 23 20 19 19 14 12 10 8 9 8 7 7 6 8 9 8 9 10 13 11 9 10 9 8 8 9 9 9 10 10 14 15 13 13 11 7 9 10 9 11 9 1 3 6 0 353 347 332
124 95 75 83 60 41 76 77 60 51 35 31 41 48 47 76 116 98 61 76 51 38 46 57 65 72 50 39 70 76 85 96 98 100 102 97 94 87 72 58 45 39 38 36 35 32 29 25 21 20 17 15 15 12 8 8 7 5 5 6 6 4 5 6 5 5 6 9 8 6 7 6 6 5 4 3 2 2 2 4 8 10 13 12 8 6 6 4 4 7 1 355 1 4 357 352 343
99 89 85 81 74 70 76 68 56 50 46 42 37 40 48 62 90 87 67 76 72 45 43 38 32 80 101 74 80 79 79 96 101 110 114 107 101 88 71 54 35 33 34 32 30 27 25 22 20 16 13 12 11 8 5 4 3 2 2 5 5 2 3 4 2 1 1 3 3 3 3 2 2 1 1 2 2 1 359 357 360 6 9 8 7 6 3 1 357 359 0 353 352 356 357 357 349
76 76 90 73 80 88 71 56 59 66 61 59 39 34 46 63 80 84 85 77 71 59 52 61 79 98 113 70 60 67 64 92 109 121 119 110 97 76 58 37 16 20 27 27 25 21 19 17 16 13 11 9 6 4 1 1 359 358 358 2 4 1 1 360 359 359 359 360 359 359 360 0 0 360 359 359 1 1 1 359 0 4 5 4 2 2 359 359 357 355 356 352 349 347 351 353 350
68 61 87 80 71 83 93 90 79 88 60 51 37 32 43 70 82 76 84 79 62 67 52 58 79 84 86 52 45 72 90 111 115 120 110 97 77 55 34 20 9 13 19 21 20 16 15 11 10 9 7 5 3 360 357 356 355 354 355 358 0 358 358 357 357 358 358 357 355 357 356 356 358 360 359 358 359 358 359 360 1 1 360 358 355 353 349 349 351 353 353 350 349 347 350 343 332
86 37 78 78 61 90 122 110 101 104 51 25 16 19 46 76 82 66 73 76 59 64 46 43 80 75 58 45 51 94 115 127 119 113 100 74 44 30 20 14 9 9 11 12 13 12 10 8 6 4 3 1 359 356 353 352 352 353 353 356 358 357 357 357 359 360 358 357 353 353 352 352 355 357 357 355 356 355 355 356 356 356 353 351 348 346 343 340 341 343 345 343 345 343 345 335 314
105 102 89 81 74 105 114 111 117 102 35 24 20 13 65 74 65 65 83 69 53 66 44 46 95 99 77 65 69 120 121 128 121 102 82 42 16 10 7 7 7 5 5 5 5 4 5 4 2 0 359 358 356 353 350 349 350 351 352 355 357 355 357 358 1 0 359 359 354 353 351 350 353 354 354 353 352 351 351 352 352 352 349 347 345 343 342 340 336 331 328 327 328 324 319 317 312
105 101 92 98 97 98 101 106 116 101 57 47 45 28 74 69 57 73 94 66 44 62 46 50 105 95 86 93 82 128 129 135 122 85 37 11 359 359 359 360 4 1 360 360 359 358 0 0 359 357 355 354 353 350 347 346 348 350 351 353 356 355 357 359 360 360 358 358 354 352 349 348 350 350 351 350 349 348 347 347 348 348 347 345 344 342 340 338 334 328 322 319 317 312 309 311 313
105 95 83 99 107 85 66 113 138 115 127 358 96 83 77 69 76 76 78 78 48 62 63 50 91 106 98 101 106 135 136 133 94 29 7 3 354 353 354 356 360 358 356 356 356 355 356 356 356 354 352 352 350 348 345 345 348 350 350 353 356 354 355 357 357 357 356 355 353 351 348 345 346 346 346 346 345 345 344 344 344 344 343 342 341 340 338 336 333 328 324 319 313 310 309 311 313
99 98 82 82 107 117 93 127 141 105 147 142 111 84 72 69 85 80 70 90 79 70 79 69 76 89 102 109 113 119 109 79 25 5 1 360 354 352 349 352 357 356 354 352 353 353 353 353 353 351 350 348 346 345 343 345 349 350 351 353 356 353 351 353 354 354 354 353 352 351 348 344 343 342 341 341 341 341 341 340 339 339 339 338 337 337 336 334 330 327 324 319 313 310 309 307 307
89 88 76 86 107 136 143 161 163 130 150 158 136 74 103 91 84 86 80 88 85 75 79 78 80 90 97 98 95 86 69 44 23 13 8 4 4 4 357 353 357 357 354 350 350 350 350 350 350 349 347 345 343 343 343 346 350 350 351 353 354 352 350 352 351 352 352 351 350 349 347 344 341 339 337 337 337 337 337 336 334 334 334 334 334 334 334 332 328 323 320 317 314 311 309 306 304
73 75 72 98 124 128 167 174 150 133 134 153 137 122 123 116 96 97 81 72 81 81 78 79 84 89 87 81 77 67 56 45 35 28 17 12 10 10 5 358 355 354 351 349 348 346 347 348 347 346 344 343 343 343 345 349 352 351 351 353 354 354 353 352 350 350 350 348 347 346 344 342 339 337 336 336 335 334 333 331 329 329 330 330 330 331 331 330 326 322 318 315 313 311 310 307 304
55 79 81 86 171 85 112 140 132 127 131 132 124 122 114 110 113 105 79 58 73 76 70 80 85 79 75 69 65 57 49 42 35 28 17 10 5 1 0 354 349 347 346 347 345 344 346 347 345 344 345 345 346 346 347 350 350 351 351 352 353 354 353 350 349 349 348 346 345 343 341 338 337 336 335 333 332 330 329 327 326 327 327 328 328 328 328 326 323 320 317 314 312 310 308 306 304
44 66 81 48 153 79 77 121 124 131 133 128 119 120 107 104 106 107 113 73 57 63 65 73 74 69 69 64 58 52 44 38 28 19 10 2 355 349 348 344 340 341 342 342 340 343 346 345 344 345 348 350 350 350 350 347 348 350 350 350 351 351 350 348 347 346 346 345 343 342 339 337 335 334 332 330 328 326 326 325 325 325 326 326 326 326 325 323 321 318 316 314 312 310 307 305 303
43 48 92 132 121 80 72 116 122 128 130 125 119 114 100 98 106 111 118 77 41 59 78 70 67 67 66 60 55 47 38 31 18 8 360 353 350 343 340 339 337 337 339 339 339 343 344 343 345 346 348 351 353 354 353 350 349 349 346 348 349 348 347 345 344 343 342 342 342 341 338 336 334 333 331 329 327 326 325 324 325 325 325 326 325 325 324 322 320 318 316 314 312 310 308 305 303
70 47 78 94 109 93 95 118 123 128 125 119 113 106 104 104 91 80 95 104 96 89 81 73 70 68 62 56 49 39 27 15 3 359 355 351 350 347 344 341 339 338 337 340 340 342 343 344 347 346 347 351 354 355 354 351 348 344 342 345 345 344 343 341 339 338 339 341 340 340 337 336 335 334 332 329 328 326 325 325 325 324 324 324 323 322 321 320 320 319 317 315 313 310 308 305 303
98 55 63 81 104 106 114 120 120 127 121 111 106 110 117 105 83 73 88 105 113 103 89 84 78 69 63 52 39 26 9 360 354 351 352 353 353 353 353 350 349 346 342 343 343 344 347 349 349 347 347 349 351 353 353 349 344 339 337 340 340 338 338 336 335 335 337 339 338 338 337 336 335 334 331 330 329 327 326 324 323 323 322 321 320 319 319 318 318 317 317 315 313 311 309 306 303
97 84 67 83 100 102 116 122 118 124 111 104 118 117 104 96 96 88 95 105 109 109 97 91 88 71 63 44 20 11 359 356 354 352 356 359 3 7 8 7 6 2 358 356 353 354 354 354 351 347 346 344 346 349 351 347 341 336 335 335 335 335 334 333 333 334 335 336 337 337 336 335 334 333 332 330 329 327 326 324 322 322 321 320 319 319 317 317 317 317 316 315 313 312 310 308 305
63 94 90 88 95 98 113 117 111 110 103 110 119 105 88 92 105 109 109 117 116 117 109 100 93 69 53 13 354 357 356 360 0 0 1 2 11 17 17 15 14 13 12 9 4 2 359 358 353 346 343 342 342 345 347 346 341 336 332 331 331 332 331 330 331 331 333 334 335 334 334 333 332 332 331 329 328 326 325 323 322 321 321 320 320 319 318 318 318 318 318 317 316 315 314 312 308
52 102 101 95 94 98 109 106 99 101 103 118 111 87 98 101 89 114 131 125 115 133 141 140 104 69 336 325 328 336 350 5 5 1 355 357 9 15 14 13 13 12 12 10 7 5 1 358 352 345 343 341 339 340 343 344 341 336 331 330 330 329 329 329 329 330 331 333 333 333 332 332 331 331 329 328 326 325 324 323 322 321 321 320 320 320 320 320 321 322 322 321 321 320 319 317 313
110 102 95 93 95 96 99 95 88 91 93 103 109 95 129 116 45 214 183 151 274 249 249 263 265 281 299 303 304 311 328 357 2 360 353 355 6 10 12 13 12 10 8 7 5 3 357 351 347 345 343 338 336 337 339 342 340 336 333 331 329 328 328 328 329 330 331 332 332 332 331 331 330 329 328 326 325 324 323 322 322 321 321 322 322 322 323 323 324 326 326 324 324 323 322 321 318
110 101 90 79 87 88 80 86 68 62 86 78 84 112 287 336 268 192 187 219 290 282 272 268 272 281 288 297 298 290 297 337 353 359 358 357 6 10 10 11 12 8 4 2 360 356 348 343 344 342 339 335 335 334 337 340 340 337 335 332 329 328 328 328 330 332 332 332 332 331 330 329 328 327 326 326 325 324 323 323 323 323 324 325 325 325 326 326 326 328 327 325 325 323 322 322 319
103 98 89 56 71 69 37 53 30 25 113 61 24 343 302 298 202 173 190 255 288 292 285 276 274 283 289 299 301 285 292 322 342 354 358 359 6 8 8 8 8 6 2 357 353 348 340 340 340 338 336 333 332 333 336 340 340 339 337 333 330 330 330 331 333 333 332 331 330 330 329 328 328 327 326 325 325 324 324 324 325 326 327 328 328 328 327 327 327 328 326 325 325 323 322 321 321
94 81 83 35 34 24 11 26 348 358 213 265 333 344 286 280 207 178 238 276 291 295 286 278 277 286 291 295 296 288 292 311 330 344 352 358 2 2 4 4 1 1 360 353 346 340 335 336 336 334 332 330 331 333 336 339 340 340 338 334 333 334 334 334 334 332 331 330 329 329 329 328 328 327 326 325 325 325 325 326 327 328 329 330 330 329 328 327 327 328 326 324 324 324 323 323 322
81 48 49 40 60 338 341 10 342 360 14 308 60 77 272 280 245 183 245 274 292 298 286 275 276 283 285 283 283 283 289 304 322 335 344 353 356 355 357 356 354 354 355 353 345 336 332 331 330 329 328 328 330 334 337 339 341 341 338 337 337 337 336 334 333 331 330 330 330 329 329 328 327 326 326 326 326 327 327 328 329 330 331 331 330 329 328 327 327 328 326 324 324 323 322 322 322
44 69 9 359 81 309 314 7 17 55 19 23 74 215 275 287 273 188 237 269 285 294 289 277 274 276 277 277 277 279 286 301 319 332 337 344 349 350 351 348 345 346 351 354 349 339 331 328 327 327 327 330 333 337 340 341 342 342 341 340 339 338 336 334 332 332 331 331 330 330 329 328 327 327 327 327 328 327 328 329 330 330 331 330 330 329 328 326 326 327 326 324 322 322 321 320 321
9 77 79 337 51 17 320 12 25 33 13 18 46 284 273 306 338 209 238 262 274 287 291 281 274 274 278 280 280 283 289 302 319 332 332 335 340 341 342 341 337 338 345 352 352 345 334 331 328 329 331 334 338 340 341 343 343 343 343 341 340 338 336 334 334 333 333 332 331 330 329 328 327 327 327 328 328 328 329 331 331 332 332 331 330 328 327 326 325 325 325 323 322 321 321 320 319
353 48 91 340 37 21 329 322 4 19 42 4 19 293 253 287 321 296 245 261 270 282 291 286 274 272 279 281 282 286 292 302 319 332 330 329 331 330 332 334 332 333 341 348 352 348 340 336 334 335 338 339 341 342 344 344 344 344 343 341 341 339 338 336 335 335 333 331 330 329 328 328 328 328 329 330 331 332 333 334 334 334 334 333 331 329 328 327 326 326 325 324 323 322 322 321 320
132 90 113 79 48 51 333 275 343 10 29 10 11 337 280 298 318 308 257 260 271 278 285 287 276 271 277 280 283 288 292 302 319 329 325 324 323 323 326 329 330 330 337 344 349 349 345 342 341 342 342 342 344 345 346 346 344 344 342 342 342 341 339 338 336 334 333 332 331 330 330 330 331 332 333 334 336 337 337 337 337 337 336 334 332 330 328 328 328 327 327 326 324 324 324 324 323
140 131 128 113 99 255 273 253 318 3 13 350 358 308 290 299 308 303 277 264 271 276 278 280 276 274 278 280 285 289 292 305 318 319 319 323 318 317 321 323 325 326 332 340 346 348 345 345 346 345 344 346 349 348 347 346 346 345 344 344 344 343 341 339 337 336 335 334 333 333 333 333 335 336 337 338 339 340 340 340 339 339 337 335 332 331 330 331 330 329 329 328 326 325 326 326 326
115 103 92 92 119 273 287 274 320 2 25 299 289 279 285 280 279 283 282 273 272 274 274 277 279 281 284 285 289 291 295 306 313 312 316 320 314 312 315 317 318 320 328 339 343 344 344 346 346 346 348 350 350 350 349 348 347 347 346 346 345 344 342 341 339 338 337 336 335 335 336 337 338 339 340 342 342 342 341 340 339 338 336 334 333 332 333 333 333 332 331 331 330 329 330 331 332
82 98 96 66 79 265 276 260 318 358 40 253 310 326 289 272 269 273 272 265 268 272 274 280 286 289 290 290 293 295 298 303 308 313 316 317 312 309 309 312 314 317 327 337 339 340 343 345 345 347 350 350 350 350 349 348 348 347 346 345 344 344 342 341 340 339 338 337 337 338 339 340 342 342 343 343 342 341 340 339 338 337 336 335 334 334 335 334 334 334 333 334 334 334 336 338 338
61 84 100 69 9 282 278 269 327 356 33 263 337 344 286 269 265 269 264 252 258 268 272 280 286 289 292 296 298 298 298 301 308 317 320 314 311 310 309 310 312 317 327 334 336 340 342 342 344 348 349 349 350 349 349 348 348 347 346 344 343 342 341 341 340 339 338 338 340 342 343 343 344 343 343 342 342 341 339 339 339 339 338 336 335 335 336 335 335 336 336 336 335 334 337 340 342
51 56 89 230 303 339 278 306 339 340 36 284 307 304 283 291 294 274 262 246 255 265 269 274 278 284 292 299 300 299 301 305 313 322 326 321 315 316 314 311 312 317 326 333 337 340 341 341 344 347 348 349 349 348 348 348 347 346 344 342 341 341 341 340 340 339 339 341 343 344 345 345 345 344 343 343 343 342 341 341 341 341 340 337 336 336 336 336 337 337 336 336 335 333 334 337 342
20 68 101 223 292 165 239 294 334 331 3 16 332 323 302 327 331 285 278 269 266 267 271 276 282 293 303 309 311 312 313 316 322 329 334 334 330 326 320 314 312 317 325 331 337 339 339 341 343 345 346 347 347 346 346 346 346 345 343 342 342 343 343 342 342 343 344 346 346 347 347 347 347 345 344 344 344 344 342 342 341 340 339 337 335 336 337 336 336 336 334 334 334 333 331 333 336
3 42 120 163 187 193 284 316 1 18 353 355 23 12 302 317 316 271 306 342 294 280 281 284 297 314 322 329 334 333 330 329 332 334 336 334 332 328 321 316 312 318 325 331 336 338 339 341 342 343 344 345 344 343 344 345 345 344 344 345 345 346 346 345 345 346 347 348 349 351 350 348 347 345 344 344 344 344 343 342 341 339 338 336 335 336 336 335 334 334 334 333 333 332 331 330 332
30 333 139 146 142 107 349 359 39 47 295 312 52 86 268 315 316 276 314 333 302 296 288 280 289 308 318 323 333 344 342 337 335 331 328 323 321 321 320 316 314 319 326 331 336 337 339 340 341 341 342 342 343 342 343 344 344 345 346 347 347 346 346 346 346 346 348 350 351 352 351 349 347 345 344 344 344 344 343 343 341 339 339 337 337 338 337 336 336 336 336 335 334 333 332 331 332
307 260 122 126 117 117 70 72 87 198 265 328 27 94 200 296 287 280 314 316 305 307 289 277 275 284 296 298 317 345 341 330 324 317 314 312 312 315 318 316 317 322 328 332 334 335 337 338 338 340 341 341 341 341 342 343 344 346 347 347 346 346 346 346 346 347 349 351 353 353 352 349 346 345 345 345 345 345 344 344 343 343 343 343 342 342 341 340 340 339 339 338 336 336 334 334 334
270 214 143 146 132 151 140 100 101 33 16 325 330 50 100 272 275 302 338 311 299 292 272 271 267 264 275 283 297 326 328 316 309 305 306 309 309 312 317 320 321 326 330 331 331 332 334 335 336 338 340 340 341 341 341 342 344 345 346 346 346 346 346 346 346 348 350 353 354 354 352 350 348 347 347 346 346 346 346 346 347 348 348 349 348 346 345 344 344 343 342 341 340 340 338 336 335
256 162 131 51 60 69 71 88 122 46 28 268 278 18 43 275 282 310 350 262 264 265 264 262 252 250 260 277 292 301 308 304 301 305 309 312 312 315 323 327 327 329 330 329 328 329 330 332 335 338 339 340 341 341 341 342 344 345 345 346 346 347 347 346 347 349 351 354 355 355 353 352 351 350 348 347 348 348 349 350 351 352 352 352 352 350 349 348 348 347 346 346 344 342 342 339 336
144 107 17 5 14 15 39 52 92 58 341 255 254 328 70 304 285 261 224 222 209 210 259 252 234 238 250 270 289 290 297 302 308 316 318 321 323 327 332 331 329 329 328 328 327 327 329 332 335 337 339 340 341 341 341 343 344 344 344 346 347 348 347 347 348 349 352 354 356 356 354 354 353 352 350 349 350 351 352 353 353 354 355 355 355 354 353 352 351 350 349 349 347 346 345 343 341
112 78 18 349 328 345 14 351 36 70 288 264 262 313 96 214 266 241 235 251 213 183 185 212 221 233 246 264 281 288 299 308 319 326 329 334 334 332 332 330 329 328 326 328 328 328 330 332 335 337 338 339 340 341 341 342 344 344 344 346 348 348 348 348 349 351 353 354 355 355 354 355 355 353 351 351 353 355 355 356 356 356 356 357 357 357 355 354 353 352 352 352 351 350 349 348 346
58 58 56 36 343 356 358 326 345 205 249 260 272 333 165 231 246 241 248 258 237 216 199 197 223 246 263 275 285 293 302 311 320 326 330 333 331 328 328 328 328 326 326 328 329 331 332 333 335 336 336 338 339 340 340 342 344 344 344 346 348 349 349 349 350 351 353 353 354 354 354 355 355 353 352 353 356 357 357 357 358 358 357 357 358 358 357 357 357 357 356 355 354 353 352 352 351
54 89 84 74 51 24 320 290 313 286 273 275 287 310 284 272 266 230 234 257 244 226 216 216 239 263 281 287 293 300 305 311 315 317 322 325 324 323 325 327 327 325 326 329 331 333 334 333 334 334 335 337 338 339 340 342 344 343 344 346 348 349 349 350 350 352 353 352 353 353 354 355 354 352 353 357 359 358 359 0 360 359 358 358 360 360 0 1 2 360 357 356 354 354 355 356 355
80 159 119 106 132 110 279 255 256 294 293 297 309 291 206 255 295 220 238 283 279 234 227 233 249 273 289 294 298 302 303 304 304 307 315 320 321 322 324 327 326 325 326 329 332 334 334 333 333 334 334 335 337 338 339 342 343 343 344 346 349 349 349 350 351 352 352 351 352 353 354 354 352 352 356 360 0 360 1 2 1 0 0 2 3 5 5 5 3 359 357 357 356 355 356 356 356
197 167 91 67 156 135 140 199 184 225 312 300 287 230 219 231 279 282 298 304 273 229 237 247 263 283 292 296 300 302 301 299 300 306 315 318 319 322 326 327 327 327 328 329 333 335 334 332 332 333 333 334 337 338 339 342 343 343 344 347 349 349 350 351 352 352 351 350 352 354 354 353 352 354 357 1 1 1 2 3 2 3 4 6 8 8 7 4 1 358 356 356 355 353 355 354 355
85 71 93 149 133 117 106 194 67 74 42 288 282 264 290 325 326 323 353 335 290 257 246 251 267 285 292 298 304 304 303 303 305 310 314 316 320 324 327 329 330 330 329 330 332 332 331 331 331 332 332 335 337 337 340 342 343 343 344 347 349 350 350 351 352 352 350 350 351 354 355 352 352 356 359 1 1 2 3 3 4 6 7 9 10 9 6 1 357 355 355 354 351 351 354 355 354
76 92 166 158 90 97 101 22 353 38 36 286 319 284 296 345 330 326 6 346 304 283 257 260 270 279 292 307 313 308 307 311 314 316 315 316 324 329 329 332 334 333 329 329 329 327 328 330 331 332 333 335 337 338 341 342 342 343 345 348 350 351 351 351 352 351 349 349 351 355 355 352 353 358 360 1 1 2 3 5 6 8 9 10 10 8 3 358 355 353 352 351 349 348 350 354 354
89 129 146 120 92 69 38 51 3 10 318 293 311 300 272 219 231 305 22 284 280 283 278 274 269 271 292 317 324 317 313 317 321 320 316 320 329 331 332 335 334 330 326 325 325 325 327 331 332 333 333 335 338 339 341 342 342 343 346 349 351 352 352 352 350 349 347 348 351 356 356 353 355 359 360 0 0 2 4 6 8 9 10 11 9 5 1 356 354 353 351 349 349 350 353 358 357
55 69 33 28 116 148 54 74 143 233 292 295 318 326 286 232 219 193 204 231 235 245 271 265 260 271 292 313 327 327 320 318 323 320 316 324 332 329 331 333 330 326 323 322 324 326 329 331 332 333 334 336 338 340 341 342 343 344 347 350 351 352 352 351 349 347 346 347 352 357 356 354 357 359 359 360 0 2 5 7 10 10 12 11 7 4 360 357 355 353 351 350 354 1 1 358 357
57 31 1 4 77 121 144 41 99 133 164 216 322 318 281 250 210 185 211 231 214 208 223 245 261 280 292 301 316 323 320 316 318 318 315 324 330 327 328 329 325 321 321 321 324 327 330 331 333 333 334 336 339 341 342 343 343 345 347 350 351 353 353 351 347 345 345 347 352 357 354 355 358 358 359 360 0 3 6 9 11 12 11 10 6 4 360 358 355 351 352 356 3 6 1 356 357
155 145 183 158 117 108 92 330 322 100 138 172 157 293 279 264 207 204 229 253 240 226 234 258 274 286 295 302 311 315 314 309 308 314 317 320 325 325 325 325 323 319 320 323 326 328 330 332 333 332 333 337 340 341 343 343 343 345 348 350 351 354 353 349 346 344 344 347 353 356 354 355 359 358 358 360 1 4 7 10 12 11 10 8 5 3 0 357 354 352 356 3 7 5 359 358 359